Regional Weather Roundup
Issued by NWS

Home | Current Version | Previous Version | Graphics & Text | Print | Product List | Glossary On
Versions: 1 2 3 4 5 6 7 8 9 10 11 12 13 14 15 16 17 18 19 20 21 22 23 24 25 26 27
000
ASUS45 KBOU 251207
RWRCO

WEATHER ROUNDUP FOR COLORADO
NATIONAL WEATHER SERVICE DENVER/BOULDER CO
600 AM MDT SAT MAR 25 2017

NOTE: "FAIR" INDICATES FEW OR NO CLOUDS BELOW 12000 FEET WITH NO
SIGNIFICANT WEATHER AND/OR OBSTRUCTIONS TO VISIBILITY.

COZ001>005-013-030-031-251300-
...NORTHWEST COLORADO...

CITY           SKY/WX    TMP DP  RH WIND       PRES   REMARKS
CRAIG          FAIR      25  20  81 W3        30.11F
HAYDEN         FAIR      30  19  64 E14       30.12S WCI  20
MEEKER         FAIR      25  21  85 NE6       30.10F WCI  18
MOUNT WERNER   NOT AVBL
STEAMBOAT SPGS FAIR      28  23  83 CALM      30.13F
WALDEN         NOT AVBL
$$

COZ006>008-011-251300-
...WEST CENTRAL VALLEYS...

CITY           SKY/WX    TMP DP  RH WIND       PRES   REMARKS
GRAND JUNCTION FAIR      41  28  60 SE8       30.08F
MONTROSE       FAIR      32  26  78 CALM      30.15S
EAGLE          FAIR      27  23  85 E3        30.20S
RIFLE          FAIR      30  24  78 SE3       30.13F
DELTA          FAIR      34  24  67 NE6       30.13S WCI  29
NUCLA          FAIR      32  27  80 SE9       30.16S WCI  24
$$

COZ017>023-064>068-251300-
...SOUTHWEST COLORADO...

CITY           SKY/WX    TMP DP  RH WIND       PRES   REMARKS
DURANGO        FAIR      28  20  71 CALM      30.17S
CORTEZ         FAIR      27  24  89 NE6       30.15S WCI  20
PAGOSA SPRINGS FAIR      30  29  99 CALM      30.19F
TELLURIDE      NOT AVBL
WOLF CREEK PAS FAIR      27  12  54 W10       30.32S WCI  17
$$

COZ009-010-012-014-032>034-037-058>063-251300-
...CENTRAL COLORADO...

CITY           SKY/WX    TMP DP  RH WIND       PRES   REMARKS
ASPEN          FAIR      28  21  75 S7        30.16F WCI  21
BUENA VISTA    FAIR      23  17  80 W3        30.17S
COPPER MTN     FAIR      32  -9  16 SW3       30.26S
BERTHOUD PASS  FAIR      21   9  58 NW21G28   30.25R WCI   6
COTTONWOOD PAS FAIR      36   3  25 W6        30.19F
GUNNISON       FAIR      24  21  88 CALM      30.23
KREMMLING      FAIR      25  21  86 CALM      30.21F
LEADVILLE      FAIR      17  10  74 NE7       30.20F WCI   8
MONARCH PASS   FAIR      25  10  54 W26       30.35S WCI   9
SALIDA         FAIR      37  21  53 NW13      30.22F
SUNLIGHT       FAIR      25  18  74 S10       30.25F WCI  15
WILKERSON PASS FAIR      32  -4  21 W10G20    30.24S WCI  24
$$

COZ069>075-251300-
...SAN LUIS VALLEY/SANGRE DE CRISTO MOUNTAINS...

CITY           SKY/WX    TMP DP  RH WIND       PRES   REMARKS
ALAMOSA        FAIR      22  20  92 W6        30.19F WCI  14
LA VETA PASS   NOT AVBL
SAGUACHE       FAIR      28  19  69 N8        30.21S WCI  20
$$

COZ035-036-038>040-251300-
...NORTHERN COLORADO FRONT RANGE...

CITY           SKY/WX    TMP DP  RH WIND       PRES   REMARKS
DENVER INTL AP FAIR      28  24  85 S9        30.05S WCI  19
DMNS CITY PARK   N/A     34  27  75 SE9       30.05S WCI  27
AURORA         PTCLDY    33  27  78 S12       30.06S WCI  25
FRONT RANGE AP FAIR      32  28  86 S7        30.06S WCI  26
ERIE MUNI ARPT FAIR      28  27  94 CALM      30.06R
BOULDER MUN AP FAIR      34  30  86 CALM      30.05S
CENTENNIAL     FAIR      31  26  82 SE5       30.06R WCI  26
BROOMFIELD     FAIR      36  30  80 CALM      30.06R
FORT COLLINS   FAIR      32  26  78 N7        30.05F WCI  26
LONGMONT       FAIR      28  24  87 CALM      30.08R
$$

COZ041-046-047-076>085-087-088-251300-
...PIKES PEAK/PALMER DIVIDE AND SOUTHERN FOOTHILLS...

CITY           SKY/WX    TMP DP  RH WIND       PRES   REMARKS
COLO. SPRINGS  FAIR      29  24  82 N7        30.10S WCI  22
A. F. ACADEMY  CLEAR     23  22  96 N8        30.09S WCI  14
SCHRIEVER AFB  FAIR      30  27  86 NW6       30.10S WCI  24
ELLICOTT         N/A    N/A N/A N/A NW5       30.09R
FALCON         FAIR      28  25  91 NW7       30.11S WCI  20
FORT CARSON    FAIR      30  24  81 NW7       30.08F WCI  23
LIMON          FAIR      23  22  96 CALM      30.08S
MONUMENT HILL  FAIR      28  21  74 S10       30.10F WCI  19
TRINIDAD       FAIR      31  26  82 SW16      30.11S WCI  20
$$

COZ042>045-048>051-090-091-251300-
...NORTHEAST COLORADO...

CITY           SKY/WX    TMP DP  RH WIND       PRES   REMARKS
GREELEY ARPT   FAIR      24  21  88 N6        30.07S WCI  17
AKRON          FAIR      34  27  75 S5        30.05F WCI  30
BURLINGTON     FAIR      33  29  85 NW13      30.06R WCI  24
WRAY           FAIR      30  30 100 W5        30.06F WCI  25
STERLING       FAIR      28  28 100 CALM      30.06S
HOLYOKE          N/A     34  32  93 W8        30.06F WCI  27
FORT MORGAN    FAIR      28  26  94 W7        30.07S WCI  21
$$

COZ086-089-092>099-251300-
...SOUTHEAST COLORADO...

CITY           SKY/WX    TMP DP  RH WIND       PRES   REMARKS
PUEBLO         FAIR      28  25  88 CALM      30.10S
LA JUNTA       FAIR      33  29  85 SW6       30.10F WCI  28
LAMAR          FAIR      29  26  89 SW6       30.08S WCI  23
SPRINGFIELD      N/A     30  29  96 W12       30.08S WCI  20
$$




USA.gov is the U.S. government's official web portal to all federal, state and local government web resources and services.